Location: Gollag?dem
(16.8053°N, 80.8024°E)
Time: 18:05:51
(UTC+00:00)

Centaur AC-72 - Pass Details

Date: 13 August 2020
Orbit: 1139 x 35217 km, 19.1° (Epoch: 17 September)

Event Time Altitude Azimuth Distance (km) Brightness Sun altitude
Exits shadow 22:25:56 50° 279° (W) 1,443 3.0 -26.5°
Maximum altitude 22:27:41 89° 190° (S) 1,247 2.9 -26.1°
Drops below altitude 10° 22:38:09 10° 101° (ESE) 5,355 7.0 -23.8°
Sets 22:45:12 0° 102° (ESE) 8,312 8.2 -22.3°
